Weather History for La Porte, IN

Change the Weather History Date:

Wednesday, July 17, 2013

  Actual Average (KVPZ) Record (KVPZ)
Temperature  
Mean Temperature 78 °F 73 °F  
Max Temperature 90 °F 83 °F 99 °F (2012)
Min Temperature 68 °F 62 °F 48 °F (2014)
Degree Days  
Heating Degree Days 0 0  
Month to date heating degree days 0  
Since 1 June heating degree days 41  
Since 1 July heating degree days 0  
Cooling Degree Days 14 8  
Month to date cooling degree days 136  
Year to date cooling degree days 347  
Since 1 June cooling degree days 300  
Growing Degree Days 28 (Base 50)    
Moisture  
Dew Point 71 °F    
Average Humidity 76    
Maximum Humidity 100    
Minimum Humidity 50    
Precipitation  
Precipitation 0.00 in 0.17 in 1.10 in (2003)
Month to date precipitation 2.45  
Year to date precipitation 19.34  
Sea Level Pressure  
Sea Level Pressure 30.29 in    
Wind  
Wind Speed 2 mph (West)    
Max Wind Speed 9 mph    
Max Gust Speed 22 mph    
Visibility 9 miles    
Events      
T = Trace of Precipitation, MM = Missing Value Source: NWS Daily Summary

Daily Weather History Graph

Daily Weather History Graph

Search for Another Location

Airport:

Trip Planner

Search our weather history database for the weather conditions in past years. The results will help you decide how hot, cold, wet, or windy it might be!

Date:

Astronomy

Jul. 17, 2013 Rise Set
Actual Time 5:27 AM CDT 8:17 PM CDT
Civil Twilight 4:55 AM CDT 8:50 PM CDT
Nautical Twilight 4:13 AM CDT 9:31 PM CDT
Astronomical Twilight 3:25 AM CDT 10:19 PM CDT
Moon 3:05 PM CDT (7/17) 12:36 AM CDT (7/17)
Length of Visible Light 15h 55m
Length of Day
14h 50m
Waxing Gibbous, 67% of the Moon is Illuminated
Jul 17
Waxing Gibbous
Jul 22
Full
Jul 29
Last Quarter
Aug 6
New
Aug 14
First Quarter

Hourly Weather History & Observations

Time (CDT) Temp. Heat Index Dew Point Humidity Pressure Visibility Wind Dir Wind Speed Gust Speed Precip Events Conditions
12:15 AM 74.5 °F - 71.4 °F 90% 30.31 in 10.0 mi West 3.5 mph - N/A   Clear
12:35 AM 74.3 °F - 71.8 °F 92% 30.31 in 10.0 mi West 3.5 mph - N/A   Clear
1:15 AM 71.6 °F - 70.5 °F 96% 30.31 in 10.0 mi Calm Calm - N/A   Clear
1:35 AM 71.1 °F - 70.9 °F 99% 30.31 in 10.0 mi Calm Calm - N/A   Clear
1:55 AM 70.3 °F - 70.3 °F 100% 30.31 in 10.0 mi Calm Calm - N/A   Clear
2:15 AM 70.2 °F - 70.2 °F 100% 30.31 in 10.0 mi Calm Calm - N/A   Clear
2:35 AM 69.6 °F - 69.6 °F 100% 30.32 in 7.0 mi Calm Calm - N/A   Clear
2:55 AM 68.5 °F - 68.5 °F 100% 30.32 in 5.0 mi Calm Calm - N/A   Clear
3:15 AM 69.1 °F - 69.1 °F 100% 30.32 in 4.0 mi Calm Calm - N/A   Clear
3:35 AM 69.1 °F - 69.1 °F 100% 30.32 in 7.0 mi Calm Calm - N/A   Clear
3:55 AM 69.8 °F - 69.8 °F 100% 30.32 in 7.0 mi Calm Calm - N/A   Clear
4:15 AM 69.1 °F - 69.1 °F 100% 30.32 in 7.0 mi Calm Calm - N/A   Clear
4:35 AM 69.8 °F - 69.8 °F 100% 30.32 in 7.0 mi Calm Calm - N/A   Clear
4:55 AM 69.6 °F - 69.6 °F 100% 30.33 in 7.0 mi West 4.6 mph - N/A   Clear
5:15 AM 70.0 °F - 70.0 °F 100% 30.33 in 7.0 mi West 3.5 mph - N/A   Clear
5:35 AM 69.8 °F - 69.8 °F 100% 30.33 in 10.0 mi West 3.5 mph - N/A   Clear
5:55 AM 70.0 °F - 70.0 °F 100% 30.33 in 7.0 mi Calm Calm - N/A   Clear
6:15 AM 70.9 °F - 70.9 °F 100% 30.34 in 7.0 mi Calm Calm - N/A   Clear
6:35 AM 72.3 °F - 72.3 °F 100% 30.34 in 7.0 mi Calm Calm - N/A   Clear
6:55 AM 73.9 °F - 72.1 °F 94% 30.35 in 10.0 mi Calm Calm - N/A   Clear
7:15 AM 75.7 °F - 72.0 °F 88% 30.35 in 10.0 mi Calm Calm - N/A   Clear
7:35 AM 77.0 °F - 72.0 °F 84% 30.35 in 10.0 mi West 3.5 mph - N/A   Clear
7:55 AM 78.3 °F - 71.1 °F 78% 30.35 in 10.0 mi West 4.6 mph - N/A   Clear
8:15 AM 79.9 °F - 71.8 °F 76% 30.36 in 10.0 mi West 4.6 mph - N/A   Clear
8:35 AM 81.0 °F 85.1 °F 71.6 °F 73% 30.35 in 10.0 mi West 5.8 mph - N/A   Clear
8:55 AM 82.4 °F 87.4 °F 72.1 °F 71% 30.35 in 10.0 mi WNW 4.6 mph - N/A   Clear
9:15 AM 82.8 °F 86.9 °F 70.3 °F 66% 30.35 in 10.0 mi WNW 6.9 mph - N/A   Mostly Cloudy
9:35 AM 83.8 °F 88.6 °F 71.1 °F 65% 30.35 in 10.0 mi WNW 6.9 mph - N/A   Mostly Cloudy
9:55 AM 84.2 °F 89.0 °F 70.9 °F 64% 30.35 in 10.0 mi WNW 6.9 mph - N/A   Scattered Clouds
10:15 AM 84.7 °F 89.7 °F 71.1 °F 63% 30.34 in 10.0 mi NW 9.2 mph 21.9 mph N/A   Clear
10:35 AM 85.3 °F 90.4 °F 71.1 °F 62% 30.34 in 10.0 mi West 5.8 mph - N/A   Clear
10:55 AM 86.2 °F 91.1 °F 70.5 °F 59% 30.34 in 10.0 mi NW 5.8 mph - N/A   Clear
11:15 AM 86.0 °F 90.7 °F 70.3 °F 59% 30.33 in 10.0 mi NNW 3.5 mph - N/A   Clear
11:35 AM 86.9 °F 92.5 °F 70.9 °F 59% 30.33 in 10.0 mi NW 6.9 mph - N/A   Scattered Clouds
11:55 AM 87.3 °F 92.0 °F 69.8 °F 56% 30.33 in 10.0 mi West 3.5 mph - N/A   Scattered Clouds
12:15 PM 87.3 °F 92.8 °F 70.7 °F 58% 30.33 in 10.0 mi NW 3.5 mph - N/A   Scattered Clouds
12:35 PM 86.0 °F 90.1 °F 69.3 °F 57% 30.32 in 10.0 mi Calm Calm - N/A   Clear
12:55 PM 87.8 °F 92.2 °F 69.3 °F 54% 30.32 in 10.0 mi Calm Calm - N/A   Clear
1:15 PM 87.4 °F 92.3 °F 70.2 °F 56% 30.31 in 10.0 mi Calm Calm - N/A   Clear
1:35 PM 87.6 °F 92.7 °F 70.2 °F 56% 30.31 in 10.0 mi Calm Calm - N/A   Scattered Clouds
1:55 PM 86.9 °F 91.3 °F 69.6 °F 56% 30.30 in 10.0 mi Calm Calm - N/A   Clear
2:15 PM 88.5 °F 94.0 °F 70.7 °F 55% 30.29 in 10.0 mi West 6.9 mph - N/A   Scattered Clouds
2:35 PM 88.9 °F 94.2 °F 70.3 °F 54% 30.28 in 10.0 mi WSW 8.1 mph - N/A   Clear
2:55 PM 88.9 °F 93.8 °F 69.8 °F 53% 30.28 in 10.0 mi West 6.9 mph - N/A   Clear
3:15 PM 88.7 °F 93.9 °F 70.3 °F 54% 30.27 in 10.0 mi WSW 4.6 mph - N/A   Scattered Clouds
3:35 PM 89.2 °F 94.5 °F 70.3 °F 53% 30.26 in 10.0 mi WSW 6.9 mph - N/A   Scattered Clouds
3:55 PM 89.6 °F 94.3 °F 69.3 °F 51% 30.26 in 10.0 mi WSW 5.8 mph - N/A   Clear
4:15 PM 89.2 °F 94.1 °F 69.4 °F 52% 30.25 in 10.0 mi WSW 6.9 mph - N/A   Clear
4:35 PM 89.6 °F 94.3 °F 69.3 °F 51% 30.25 in 10.0 mi WSW 4.6 mph - N/A   Clear
4:55 PM 89.6 °F 93.9 °F 68.7 °F 50% 30.24 in 10.0 mi WSW 6.9 mph - N/A   Clear
5:15 PM 89.6 °F 93.9 °F 68.7 °F 50% 30.24 in 10.0 mi SW 4.6 mph - N/A   Clear
5:35 PM 88.9 °F 93.0 °F 68.7 °F 51% 30.24 in 10.0 mi WSW 5.8 mph - N/A   Clear
5:55 PM 88.3 °F 93.2 °F 69.6 °F 54% 30.23 in 10.0 mi WSW 4.6 mph - N/A   Clear
6:15 PM 88.0 °F 93.4 °F 70.3 °F 56% 30.23 in 10.0 mi WSW 4.6 mph - N/A   Clear
6:35 PM 87.6 °F 93.5 °F 71.2 °F 58% 30.22 in 10.0 mi SW 4.6 mph - N/A   Clear
6:55 PM 86.7 °F 92.1 °F 71.1 °F 59% 30.22 in 10.0 mi Calm Calm - N/A   Clear
7:15 PM 86.0 °F 91.8 °F 71.6 °F 62% 30.22 in 10.0 mi Calm Calm - N/A   Clear
7:35 PM 83.7 °F 90.1 °F 73.4 °F 71% 30.21 in 10.0 mi Calm Calm - N/A   Clear
7:55 PM 82.6 °F 88.6 °F 73.4 °F 74% 30.21 in 10.0 mi SW 3.5 mph - N/A   Clear
8:15 PM 80.8 °F 85.8 °F 73.8 °F 79% 30.21 in 10.0 mi Calm Calm - N/A   Clear
8:35 PM 79.7 °F - 73.8 °F 82% 30.21 in 10.0 mi Calm Calm - N/A   Clear
8:55 PM 78.1 °F - 73.6 °F 86% 30.21 in 10.0 mi Calm Calm - N/A   Clear
9:15 PM 78.8 °F - 73.0 °F 82% 30.21 in 10.0 mi SW 3.5 mph - N/A   Clear
9:35 PM 77.5 °F - 73.4 °F 87% 30.22 in 10.0 mi Calm Calm - N/A   Clear
9:55 PM 76.1 °F - 73.4 °F 91% 30.22 in 10.0 mi Calm Calm - N/A   Clear
10:15 PM 76.3 °F - 73.6 °F 91% 30.22 in 10.0 mi Calm Calm - N/A   Clear
10:35 PM 76.3 °F - 73.4 °F 91% 30.22 in 10.0 mi Calm Calm - N/A   Clear
10:55 PM 75.0 °F - 72.7 °F 92% 30.22 in 10.0 mi Calm Calm - N/A   Clear
11:15 PM 74.8 °F - 73.4 °F 95% 30.22 in 10.0 mi Calm Calm - N/A   Clear
11:35 PM 77.4 °F - 72.0 °F 83% 30.22 in 10.0 mi West 3.5 mph - N/A   Clear
11:55 PM 76.3 °F - 72.7 °F 89% 30.22 in 10.0 mi West 3.5 mph - N/A   Clear